When you browse on this site, cookies collect data to enhance your experience and personalize the content and advertising you see.
Visit our Privacy Policy to learn more. By continuing to use the site, you agree to this use of cookies and data.
  • In Hungary
  • List of Countries
  • For 7 days
  • Water Temperature
  • Satellite Maps
  • Weather Map
  • News
  • Weather Widgets
  • user-avatar
    Login

    Hourly Weather Volos

    Today, 11 December, Tuesday

    Time Temperature Precipitation Wind Pressure Humidity
    00:00 +8°C° 0 mm 6 mps 756 mmHg 63%
    01:00 +7°C° 0 mm 6 mps 757 mmHg 63%
    02:00 +7°C° 0 mm 6 mps 756 mmHg 63%
    03:00 +7°C° 0 mm 6 mps 756 mmHg 63%
    04:00 +7°C° 0 mm 5 mps 757 mmHg 63%
    05:00 +6°C° 0 mm 5 mps 757 mmHg 63%
    06:00 +6°C° 0 mm 5 mps 757 mmHg 64%
    07:00 +6°C° 0 mm 5 mps 757 mmHg 65%
    08:00 +6°C° 0 mm 5 mps 757 mmHg 66%
    09:00 +7°C° 0 mm 5 mps 757 mmHg 62%
    10:00 +7°C° 0 mm 5 mps 758 mmHg 58%
    11:00 +8°C° 0 mm 5 mps 758 mmHg 55%
    12:00 +9°C° 0 mm 5 mps 758 mmHg 53%
    13:00 +10°C° 0 mm 4 mps 758 mmHg 51%
    14:00 +10°C° 0 mm 4 mps 758 mmHg 51%
    15:00 +10°C° 0 mm 4 mps 758 mmHg 53%
    16:00 +8°C° 0 mm 4 mps 758 mmHg 56%
    17:00 +8°C° 0 mm 4 mps 758 mmHg 58%
    18:00 +7°C° 0 mm 4 mps 759 mmHg 59%
    19:00 +7°C° 0 mm 4 mps 759 mmHg 60%
    20:00 +7°C° 0 mm 4 mps 760 mmHg 62%
    21:00 +6°C° 0 mm 4 mps 760 mmHg 62%
    22:00 +6°C° 0 mm 4 mps 760 mmHg 63%
    23:00 +6°C° 0 mm 5 mps 760 mmHg 63%

    Tomorrow, 12 December, Wednesday

    Time Temperature Precipitation Wind Pressure Humidity
    00:00 +5°C° 0 mm 5 mps 761 mmHg 63%
    01:00 +5°C° 0 mm 5 mps 761 mmHg 64%
    02:00 +5°C° 0 mm 5 mps 761 mmHg 64%
    03:00 +5°C° 0 mm 5 mps 761 mmHg 64%
    04:00 +3°C° 0 mm 5 mps 762 mmHg 65%
    05:00 +4°C° 0 mm 4 mps 762 mmHg 65%
    06:00 +4°C° 0 mm 4 mps 762 mmHg 65%
    07:00 +4°C° 0 mm 4 mps 762 mmHg 66%
    08:00 +4°C° 0 mm 4 mps 763 mmHg 66%
    09:00 +5°C° 0 mm 4 mps 763 mmHg 61%
    10:00 +6°C° 0 mm 4 mps 763 mmHg 56%
    11:00 +8°C° 0 mm 3 mps 764 mmHg 51%
    12:00 +9°C° 0 mm 3 mps 764 mmHg 48%
    13:00 +9°C° 0 mm 3 mps 763 mmHg 45%
    14:00 +10°C° 0 mm 2 mps 763 mmHg 42%
    15:00 +9°C° 0 mm 2 mps 763 mmHg 45%
    16:00 +8°C° 0 mm 2 mps 763 mmHg 47%
    17:00 +9°C° 0 mm 1 mps 764 mmHg 50%
    18:00 +8°C° 0 mm 1 mps 764 mmHg 52%
    19:00 +8°C° 0 mm 1 mps 764 mmHg 53%
    20:00 +8°C° 0 mm 1 mps 764 mmHg 55%
    21:00 +7°C° 0 mm 1 mps 764 mmHg 57%
    22:00 +7°C° 0 mm 1 mps 765 mmHg 58%
    23:00 +7°C° 0 mm 1 mps 765 mmHg 60%

    Day after tomorrow, 13 December, Thursday

    Time Temperature Precipitation Wind Pressure Humidity
    00:00 +7°C° 0 mm 1 mps 765 mmHg 61%
    01:00 +7°C° 0 mm 1 mps 765 mmHg 63%
    02:00 +7°C° 0 mm 1 mps 765 mmHg 64%
    03:00 +7°C° 0 mm 1 mps 765 mmHg 64%
    04:00 +7°C° 0 mm 1 mps 764 mmHg 65%
    05:00 +7°C° 0 mm 1 mps 764 mmHg 66%
    06:00 +7°C° 0 mm 1 mps 764 mmHg 67%
    07:00 +7°C° 0 mm 1 mps 764 mmHg 68%
    08:00 +7°C° 0 mm 1 mps 764 mmHg 68%
    09:00 +8°C° 0 mm 1 mps 764 mmHg 66%
    10:00 +9°C° 0 mm 1 mps 764 mmHg 63%
    11:00 +10°C° 0 mm 1 mps 764 mmHg 61%
    12:00 +10°C° 0.2 mm 1 mps 764 mmHg 63%
    13:00 +10°C° 0.2 mm 1 mps 763 mmHg 65%
    14:00 +9°C° 0.2 mm 1 mps 763 mmHg 67%
    15:00 +9°C° 0.5 mm 1 mps 763 mmHg 71%
    16:00 +9°C° 0.5 mm 1 mps 763 mmHg 75%
    17:00 +8°C° 0.5 mm 1 mps 763 mmHg 79%
    18:00 +7°C° 0.6 mm 2 mps 763 mmHg 81%
    19:00 +7°C° 0.6 mm 2 mps 763 mmHg 83%
    20:00 +7°C° 0.6 mm 2 mps 763 mmHg 85%
    21:00 +7°C° 0.2 mm 2 mps 763 mmHg 86%
    22:00 +7°C° 0.2 mm 3 mps 763 mmHg 87%
    23:00 +7°C° 0.2 mm 3 mps 763 mmHg 87%

    14 December, Friday

    Time Temperature Precipitation Wind Pressure Humidity
    00:00 +7°C° 0.1 mm 3 mps 763 mmHg 87%
    01:00 +7°C° 0.1 mm 3 mps 763 mmHg 87%
    02:00 +7°C° 0.1 mm 3 mps 763 mmHg 87%
    03:00 +7°C° 0 mm 3 mps 762 mmHg 88%
    04:00 +6°C° 0 mm 2 mps 762 mmHg 88%
    05:00 +6°C° 0 mm 2 mps 762 mmHg 88%
    06:00 +7°C° 0.1 mm 2 mps 762 mmHg 89%
    07:00 +7°C° 0.1 mm 2 mps 763 mmHg 89%
    08:00 +7°C° 0.1 mm 2 mps 763 mmHg 90%
    09:00 +8°C° 0.1 mm 2 mps 763 mmHg 87%
    10:00 +9°C° 0.1 mm 2 mps 763 mmHg 85%
    11:00 +11°C° 0.1 mm 1 mps 763 mmHg 82%
    12:00 +11°C° 0 mm 1 mps 763 mmHg 81%
    13:00 +12°C° 0 mm 1 mps 763 mmHg 81%
    14:00 +12°C° 0 mm 1 mps 762 mmHg 80%
    15:00 +12°C° 0.1 mm 1 mps 762 mmHg 82%
    16:00 +12°C° 0.1 mm 1 mps 762 mmHg 84%
    17:00 +12°C° 0.1 mm 1 mps 762 mmHg 85%
    18:00 +11°C° 0.1 mm 1 mps 762 mmHg 87%
    19:00 +11°C° 0.1 mm 1 mps 763 mmHg 88%
    20:00 +11°C° 0.1 mm 1 mps 763 mmHg 89%
    21:00 +11°C° 0.1 mm 1 mps 763 mmHg 89%
    22:00 +11°C° 0.1 mm 1 mps 763 mmHg 90%
    23:00 +11°C° 0.1 mm 1 mps 762 mmHg 90%

    15 December, Saturday

    Time Temperature Precipitation Wind Pressure Humidity
    00:00 +11°C° 0.1 mm 1 mps 762 mmHg 91%
    01:00 +10°C° 0.1 mm 2 mps 762 mmHg 91%
    02:00 +10°C° 0.1 mm 2 mps 762 mmHg 92%
    03:00 +11°C° 0 mm 1 mps 761 mmHg 92%
    04:00 +11°C° 0 mm 1 mps 761 mmHg 93%
    05:00 +11°C° 0 mm 1 mps 761 mmHg 93%
    06:00 +11°C° 0 mm 1 mps 761 mmHg 93%
    07:00 +11°C° 0 mm 1 mps 760 mmHg 93%
    08:00 +11°C° 0 mm 1 mps 760 mmHg 93%
    09:00 +12°C° 0.2 mm 1 mps 760 mmHg 91%
    10:00 +12°C° 0.2 mm 1 mps 761 mmHg 90%
    11:00 +13°C° 0.2 mm 1 mps 761 mmHg 89%
    12:00 +13°C° 0.6 mm 2 mps 760 mmHg 88%
    13:00 +13°C° 0.6 mm 2 mps 760 mmHg 87%
    14:00 +14°C° 0.6 mm 2 mps 759 mmHg 86%
    15:00 +14°C° 0.2 mm 2 mps 759 mmHg 88%
    16:00 +14°C° 0.2 mm 2 mps 759 mmHg 89%
    17:00 +13°C° 0.2 mm 2 mps 759 mmHg 90%
    18:00 +13°C° 0.7 mm 2 mps 759 mmHg 91%
    19:00 +13°C° 0.7 mm 2 mps 759 mmHg 91%
    20:00 +13°C° 0.7 mm 2 mps 759 mmHg 92%
    21:00 +13°C° 0.9 mm 2 mps 759 mmHg 92%
    22:00 +13°C° 0.9 mm 2 mps 759 mmHg 92%
    23:00 +13°C° 0.9 mm 2 mps 759 mmHg 93%

    16 December, Sunday

    Time Temperature Precipitation Wind Pressure Humidity
    00:00 +13°C° 0.5 mm 2 mps 759 mmHg 93%
    01:00 +12°C° 0.5 mm 3 mps 759 mmHg 93%
    02:00 +12°C° 0.5 mm 3 mps 758 mmHg 93%
    03:00 +12°C° 0.7 mm 3 mps 758 mmHg 92%
    04:00 +12°C° 0.7 mm 3 mps 758 mmHg 92%
    05:00 +12°C° 0.7 mm 3 mps 758 mmHg 92%
    06:00 +12°C° 1 mm 4 mps 758 mmHg 92%
    07:00 +12°C° 1 mm 4 mps 759 mmHg 92%
    08:00 +12°C° 1 mm 4 mps 759 mmHg 92%
    09:00 +12°C° 1.8 mm 4 mps 759 mmHg 91%
    10:00 +12°C° 1.8 mm 4 mps 759 mmHg 91%
    11:00 +12°C° 1.8 mm 5 mps 760 mmHg 90%
    12:00 +12°C° 2.8 mm 5 mps 760 mmHg 91%
    13:00 +12°C° 2.8 mm 5 mps 760 mmHg 91%
    14:00 +12°C° 2.8 mm 5 mps 759 mmHg 92%
    15:00 +12°C° 2.4 mm 5 mps 760 mmHg 92%
    16:00 +10°C° 2.4 mm 5 mps 761 mmHg 92%
    17:00 +10°C° 2.4 mm 6 mps 761 mmHg 92%
    18:00 +10°C° 1.2 mm 6 mps 762 mmHg 92%
    19:00 +10°C° 1.2 mm 6 mps 762 mmHg 91%
    20:00 +10°C° 1.2 mm 6 mps 763 mmHg 90%
    21:00 +10°C° 0.7 mm 5 mps 764 mmHg 90%
    22:00 +10°C° 0.7 mm 5 mps 764 mmHg 90%
    23:00 +10°C° 0.7 mm 5 mps 765 mmHg 90%
    Show more